• In Kazakhstan
  • List of Countries
  • For 7 days
  • Water Temperature
  • Weather Map
  • News
  • Weather Widgets
  • user-avatar
    Login

    Hourly Weather Nakhchivan

    Today, 17 February, Monday

    Time Temperature Precipitation Wind Pressure Humidity
    00:00 0°C° 0 mm 0 mps 692 mmHg 91%
    01:00 0°C° 0.5 mm 1 mps 691 mmHg 93%
    02:00 0°C° 0.5 mm 1 mps 691 mmHg 94%
    03:00 0°C° 0.5 mm 1 mps 691 mmHg 96%
    04:00 0°C° 0.7 mm 1 mps 691 mmHg 96%
    05:00 0°C° 0.7 mm 1 mps 691 mmHg 96%
    06:00 0°C° 0.7 mm 1 mps 692 mmHg 96%
    07:00 0°C° 0.7 mm 1 mps 692 mmHg 96%
    08:00 0°C° 0.7 mm 1 mps 692 mmHg 96%
    09:00 0°C° 0.7 mm 1 mps 693 mmHg 96%
    10:00 +1°C° 0.2 mm 1 mps 692 mmHg 96%
    11:00 -1°C° 0.2 mm 2 mps 692 mmHg 96%
    12:00 +1°C° 0.2 mm 2 mps 692 mmHg 97%
    13:00 +1°C° 0 mm 2 mps 692 mmHg 95%
    14:00 +1°C° 0 mm 2 mps 692 mmHg 93%
    15:00 +2°C° 0 mm 1 mps 692 mmHg 90%
    16:00 +2°C° 0 mm 1 mps 693 mmHg 91%
    17:00 +2°C° 0 mm 1 mps 693 mmHg 91%
    18:00 0°C° 0 mm 0 mps 694 mmHg 92%
    19:00 0°C° 0 mm 0 mps 694 mmHg 92%
    20:00 0°C° 0 mm 0 mps 695 mmHg 93%
    21:00 -1°C° 0 mm 0 mps 695 mmHg 93%
    22:00 -1°C° 0 mm 0 mps 695 mmHg 92%
    23:00 -1°C° 0 mm 0 mps 695 mmHg 91%

    Tomorrow, 18 February, Tuesday

    Time Temperature Precipitation Wind Pressure Humidity
    00:00 -1°C° 0 mm 0 mps 695 mmHg 89%
    01:00 -1°C° 0 mm 0 mps 695 mmHg 88%
    02:00 -2°C° 0 mm 0 mps 695 mmHg 87%
    03:00 -2°C° 0 mm 0 mps 695 mmHg 86%
    04:00 -2°C° 0 mm 0 mps 695 mmHg 86%
    05:00 -2°C° 0 mm 0 mps 695 mmHg 86%
    06:00 -2°C° 0 mm 0 mps 695 mmHg 86%
    07:00 -2°C° 0 mm 0 mps 696 mmHg 84%
    08:00 -1°C° 0 mm 0 mps 696 mmHg 82%
    09:00 -1°C° 0 mm 0 mps 696 mmHg 80%
    10:00 0°C° 0 mm 0 mps 696 mmHg 79%
    11:00 0°C° 0 mm 0 mps 695 mmHg 78%
    12:00 +1°C° 0 mm 0 mps 694 mmHg 76%
    13:00 +1°C° 0 mm 0 mps 694 mmHg 76%
    14:00 +3°C° 0 mm 1 mps 694 mmHg 75%
    15:00 +3°C° 0 mm 1 mps 693 mmHg 75%
    16:00 +3°C° 0 mm 1 mps 693 mmHg 78%
    17:00 +1°C° 0 mm 0 mps 693 mmHg 82%
    18:00 0°C° 0 mm 0 mps 693 mmHg 85%
    19:00 0°C° 0 mm 0 mps 693 mmHg 85%
    20:00 0°C° 0 mm 0 mps 694 mmHg 86%
    21:00 0°C° 0 mm 0 mps 694 mmHg 86%
    22:00 0°C° 0 mm 0 mps 694 mmHg 86%
    23:00 0°C° 0 mm 0 mps 693 mmHg 86%

    Day after tomorrow, 19 February, Wednesday

    Time Temperature Precipitation Wind Pressure Humidity
    00:00 0°C° 0 mm 0 mps 693 mmHg 86%
    01:00 0°C° 0 mm 0 mps 693 mmHg 86%
    02:00 0°C° 0 mm 0 mps 693 mmHg 86%
    03:00 0°C° 0 mm 0 mps 692 mmHg 86%
    04:00 0°C° 0 mm 0 mps 692 mmHg 87%
    05:00 +1°C° 0 mm 1 mps 691 mmHg 88%
    06:00 +1°C° 0 mm 1 mps 691 mmHg 88%
    07:00 +1°C° 0 mm 1 mps 691 mmHg 86%
    08:00 +1°C° 0 mm 1 mps 691 mmHg 85%
    09:00 +1°C° 0 mm 2 mps 690 mmHg 83%
    10:00 +2°C° 0 mm 1 mps 690 mmHg 81%
    11:00 +3°C° 0 mm 1 mps 689 mmHg 79%
    12:00 +3°C° 0 mm 1 mps 688 mmHg 77%
    13:00 +3°C° 0 mm 1 mps 688 mmHg 76%
    14:00 +4°C° 0 mm 1 mps 687 mmHg 75%
    15:00 +4°C° 0 mm 1 mps 687 mmHg 74%
    16:00 +3°C° 0.2 mm 1 mps 686 mmHg 81%
    17:00 +2°C° 0.2 mm 0 mps 686 mmHg 87%
    18:00 +1°C° 0.2 mm 0 mps 686 mmHg 94%
    19:00 +1°C° 0 mm 0 mps 686 mmHg 94%
    20:00 +1°C° 0 mm 0 mps 686 mmHg 94%
    21:00 +1°C° 0 mm 0 mps 686 mmHg 94%
    22:00 +1°C° 0 mm 0 mps 685 mmHg 94%
    23:00 +1°C° 0 mm 0 mps 685 mmHg 95%

    20 February, Thursday

    Time Temperature Precipitation Wind Pressure Humidity
    00:00 0°C° 0 mm 0 mps 685 mmHg 95%
    01:00 +1°C° 0 mm 0 mps 684 mmHg 95%
    02:00 +1°C° 0 mm 0 mps 684 mmHg 94%
    03:00 +1°C° 0 mm 0 mps 684 mmHg 94%
    04:00 +2°C° 0.5 mm 1 mps 684 mmHg 95%
    05:00 +2°C° 0.5 mm 1 mps 683 mmHg 96%
    06:00 +1°C° 0.5 mm 1 mps 683 mmHg 96%
    07:00 +2°C° 0.3 mm 1 mps 683 mmHg 96%
    08:00 +2°C° 0.3 mm 1 mps 683 mmHg 96%
    09:00 +2°C° 0.3 mm 1 mps 683 mmHg 96%
    10:00 +2°C° 0.1 mm 1 mps 683 mmHg 96%
    11:00 +3°C° 0.1 mm 1 mps 683 mmHg 96%
    12:00 +3°C° 0.1 mm 1 mps 682 mmHg 96%
    13:00 +3°C° 0.1 mm 1 mps 682 mmHg 96%
    14:00 +3°C° 0.1 mm 1 mps 682 mmHg 96%
    15:00 +3°C° 0.1 mm 1 mps 682 mmHg 96%
    16:00 +3°C° 0 mm 1 mps 682 mmHg 96%
    17:00 +3°C° 0 mm 1 mps 682 mmHg 95%
    18:00 +3°C° 0 mm 1 mps 682 mmHg 95%
    19:00 +3°C° 0 mm 1 mps 682 mmHg 94%
    20:00 +2°C° 0 mm 0 mps 683 mmHg 94%
    21:00 +2°C° 0 mm 0 mps 683 mmHg 94%
    22:00 +2°C° 0 mm 0 mps 683 mmHg 94%
    23:00 +2°C° 0 mm 0 mps 683 mmHg 94%

    21 February, Friday

    Time Temperature Precipitation Wind Pressure Humidity
    00:00 +1°C° 0 mm 0 mps 683 mmHg 93%
    01:00 +1°C° 0 mm 0 mps 683 mmHg 93%
    02:00 +2°C° 0 mm 0 mps 683 mmHg 93%
    03:00 +2°C° 0 mm 0 mps 683 mmHg 93%
    04:00 +2°C° 0 mm 0 mps 683 mmHg 92%
    05:00 +1°C° 0 mm 0 mps 683 mmHg 92%
    06:00 +1°C° 0 mm 0 mps 683 mmHg 92%
    07:00 +2°C° 0 mm 0 mps 684 mmHg 89%
    08:00 +3°C° 0 mm 0 mps 684 mmHg 87%
    09:00 +4°C° 0 mm 0 mps 684 mmHg 84%
    16:00 +6°C° 0 mm 0 mps 684 mmHg 79%
    17:00 +6°C° 0 mm 0 mps 684 mmHg 78%
    18:00 +5°C° 0 mm 0 mps 685 mmHg 82%
    19:00 +4°C° 0 mm 0 mps 685 mmHg 82%
    20:00 +4°C° 0 mm 0 mps 685 mmHg 82%
    21:00 +4°C° 0 mm 0 mps 686 mmHg 82%
    22:00 +4°C° 0 mm 0 mps 686 mmHg 82%
    23:00 +3°C° 0 mm 0 mps 686 mmHg 82%

    22 February, Saturday

    Time Temperature Precipitation Wind Pressure Humidity
    00:00 +3°C° 0 mm 0 mps 686 mmHg 82%
    01:00 +3°C° 0 mm 0 mps 686 mmHg 82%
    02:00 +3°C° 0 mm 0 mps 686 mmHg 83%
    03:00 +3°C° 0 mm 0 mps 686 mmHg 83%
    04:00 +3°C° 0 mm 0 mps 686 mmHg 82%
    05:00 +3°C° 0 mm 0 mps 686 mmHg 82%
    06:00 +3°C° 0 mm 0 mps 686 mmHg 81%
    07:00 +4°C° 0 mm 0 mps 686 mmHg 78%
    08:00 +4°C° 0 mm 0 mps 687 mmHg 75%
    09:00 +5°C° 0 mm 0 mps 687 mmHg 72%
    10:00 +6°C° 0 mm 0 mps 687 mmHg 70%
    11:00 +7°C° 0 mm 0 mps 687 mmHg 68%
    12:00 +7°C° 0 mm 0 mps 686 mmHg 67%
    13:00 +8°C° 0 mm 0 mps 686 mmHg 66%
    14:00 +8°C° 0 mm 0 mps 686 mmHg 65%
    15:00 +8°C° 0 mm 0 mps 685 mmHg 64%
    16:00 +8°C° 0 mm 0 mps 686 mmHg 68%
    17:00 +7°C° 0 mm 0 mps 686 mmHg 72%
    18:00 +7°C° 0 mm 1 mps 686 mmHg 76%
    19:00 +6°C° 0 mm 0 mps 686 mmHg 77%
    20:00 +6°C° 0 mm 0 mps 686 mmHg 77%
    21:00 +5°C° 0 mm 0 mps 686 mmHg 78%
    22:00 +5°C° 0 mm 0 mps 686 mmHg 78%
    23:00 +4°C° 0 mm 0 mps 686 mmHg 79%
    Show more